Change the Weather History Date:

Saturday, December 8, 2012

  Actual Average (KLSF) Record (KLSF)
Temperature  
Mean Temperature 68 °F -  
Max Temperature 79 °F 60 °F 78 °F (2001)
Min Temperature 57 °F 37 °F 19 °F (2006)
Cooling Degree Days 3    
Growing Degree Days 18 (Base 50)    
Moisture  
Dew Point 59 °F    
Average Humidity 71    
Maximum Humidity 88    
Minimum Humidity 50    
Precipitation  
Precipitation 0.03 in - - ()
Sea Level Pressure  
Sea Level Pressure 30.00 in    
Wind  
Wind Speed 1 mph (South)    
Max Wind Speed 8 mph    
Max Gust Speed -    
Visibility 7 miles    
Events Rain    
Averages and records for this station are not official NWS values.
T = Trace of Precipitation, MM = Missing Value Source: NWS Daily Summary

Daily Weather History Graph

Daily Weather History Graph

Search for Another Location

Airport or City:

Trip Planner

Search our weather history database for the weather conditions in past years. The results will help you decide how hot, cold, wet, or windy it might be!

Date:

Astronomy

Dec. 08, 2012 Rise Set
Actual Time 6:28 AM CST 4:36 PM CST
Civil Twilight 6:02 AM CST 5:03 PM CST
Nautical Twilight 5:31 AM CST 5:33 PM CST
Astronomical Twilight 5:02 AM CST 6:03 PM CST
Moon 1:08 AM CST (12/8) 12:52 PM CST (12/8)
Length of Visible Light 11h 01m
Length of Day
10h 07m
Waning Crescent, 28% of the Moon is Illuminated
Dec 8
Waning Crescent
Dec 13
New
Dec 19
First Quarter
Dec 28
Full
Jan 4
Last Quarter

Hourly Weather History & Observations

Time (CST) Temp. Dew Point Humidity Pressure Visibility Wind Dir Wind Speed Gust Speed Precip Events Conditions
12:58 AM 60.1 °F 53.1 °F 78% 30.00 in 7.0 mi Calm Calm - N/A   Overcast
1:58 AM 60.1 °F 54.0 °F 80% 29.99 in 7.0 mi Calm Calm - N/A   Overcast
2:58 AM 59.0 °F 52.0 °F 78% 29.99 in 3.0 mi Calm Calm - 0.00 in Rain Light Rain
3:13 AM 57.2 °F 51.8 °F 82% 29.99 in 1.8 mi Calm Calm - 0.00 in   Haze
3:22 AM 57.2 °F 51.8 °F 82% 29.99 in 3.0 mi Calm Calm - 0.00 in   Haze
3:58 AM 57.0 °F 51.1 °F 81% 29.98 in 5.0 mi Calm Calm - 0.00 in   Haze
4:58 AM 57.0 °F 51.1 °F 81% 30.00 in 6.0 mi Calm Calm - N/A   Haze
5:58 AM 59.0 °F 52.0 °F 78% 30.01 in 4.0 mi Calm Calm - N/A   Haze
6:58 AM 59.0 °F 53.1 °F 81% 30.03 in 4.0 mi Calm Calm - N/A   Haze
7:58 AM 63.0 °F 55.0 °F 75% 30.04 in 6.0 mi Calm Calm - 0.00 in Rain Light Rain
8:58 AM 75.9 °F 55.9 °F 50% 30.04 in 10.0 mi South 3.5 mph - 0.00 in   Mostly Cloudy
9:58 AM 73.0 °F 57.0 °F 57% 30.04 in 10.0 mi Calm Calm - N/A   Overcast
10:58 AM 77.0 °F 59.0 °F 54% 30.01 in 10.0 mi South 8.1 mph - N/A   Mostly Cloudy
11:18 AM 75.2 °F 57.2 °F 53% 30.02 in 10.0 mi South 6.9 mph - N/A   Mostly Cloudy
11:58 AM 79.0 °F 59.0 °F 50% 29.99 in 10.0 mi South 5.8 mph - N/A   Overcast
12:14 PM 75.2 °F 59.0 °F 57% 29.99 in 10.0 mi South 4.6 mph - N/A   Overcast
12:58 PM 79.0 °F 59.0 °F 50% 29.97 in 10.0 mi SSE 4.6 mph - N/A   Overcast
1:58 PM 77.0 °F 59.0 °F 54% 29.96 in 10.0 mi Calm Calm - N/A   Overcast
2:51 PM 75.2 °F 60.8 °F 61% 29.97 in 10.0 mi Calm Calm - N/A   Overcast
2:58 PM 79.0 °F 60.1 °F 52% 29.96 in 10.0 mi Calm Calm - N/A   Overcast
3:02 PM 78.8 °F 60.8 °F 54% 29.96 in 10.0 mi Calm Calm - N/A   Overcast
3:35 PM 77.0 °F 60.8 °F 57% 29.97 in 10.0 mi Calm Calm - N/A   Overcast
3:39 PM 78.8 °F 60.8 °F 54% 29.96 in 10.0 mi Calm Calm - N/A   Overcast
3:58 PM 75.9 °F 60.1 °F 58% 29.96 in 10.0 mi Calm Calm - N/A   Overcast
4:58 PM 69.1 °F 61.0 °F 75% 29.97 in 10.0 mi Calm Calm - N/A   Mostly Cloudy
5:12 PM 69.8 °F 60.8 °F 73% 29.98 in 10.0 mi Calm Calm - N/A   Mostly Cloudy
5:58 PM 70.0 °F 60.1 °F 71% 29.99 in 10.0 mi Calm Calm - N/A   Overcast
6:08 PM 69.8 °F 60.8 °F 73% 30.00 in 10.0 mi Calm Calm - N/A   Overcast
6:58 PM 72.0 °F 61.0 °F 68% 30.01 in 10.0 mi South 5.8 mph - 0.00 in Rain Light Rain
7:25 PM 71.6 °F 62.6 °F 73% 30.02 in 10.0 mi SSE 4.6 mph - 0.00 in   Overcast
7:58 PM 70.0 °F 63.0 °F 78% 30.02 in 10.0 mi South 4.6 mph - 0.00 in   Overcast
8:58 PM 69.1 °F 64.0 °F 84% 30.02 in 10.0 mi Calm Calm - 0.03 in   Overcast
9:36 PM 68.0 °F 62.6 °F 83% 30.03 in 1.8 mi Calm Calm - N/A   Haze
9:58 PM 66.9 °F 62.1 °F 84% 30.03 in 6.0 mi South 3.5 mph - N/A   Haze
10:24 PM 66.2 °F 62.6 °F 88% 30.04 in 5.0 mi SSW 3.5 mph - N/A   Haze
10:28 PM 68.0 °F 62.6 °F 83% 30.04 in 5.0 mi SSW 3.5 mph - N/A   Haze
10:36 PM 66.2 °F 62.6 °F 88% 30.03 in 5.0 mi South 4.6 mph - N/A   Haze
10:58 PM 69.1 °F 63.0 °F 81% 30.03 in 5.0 mi SSW 5.8 mph - N/A   Haze
11:15 PM 68.0 °F 62.6 °F 83% 30.04 in 5.0 mi South 5.8 mph - N/A   Haze
11:31 PM 69.8 °F 62.6 °F 78% 30.03 in 2.5 mi Calm Calm - N/A   Haze
11:54 PM 69.8 °F 62.6 °F 78% 30.03 in 3.0 mi SW 6.9 mph - N/A   Haze
11:58 PM 71.1 °F 62.1 °F 73% 30.03 in 4.0 mi SSW 3.5 mph - N/A   Haze